This is the latest recevied weather packets stored in our database for station/object W1SCW. If no packets are shown the sender has not sent any weather packets the latest 10 day(s).
| Time | Temp. | Humidity | Pressure | Rain* | Wind** | Luminosity | Snow |
|---|---|---|---|---|---|---|---|
| 1777680872 | 15° C | 99% | 1010.8 hPa | 0 mm | - | 11 W/m² | - |
| 1777680570 | 15° C | 99% | 1011.1 hPa | 0 mm | - | 15 W/m² | - |
| 1777680268 | 15° C | 99% | 1011.2 hPa | 3.05 mm | - | 14 W/m² | - |
| 1777679964 | 15° C | 99% | 1010.8 hPa | 5.33 mm | - | 31 W/m² | - |
| 1777679660 | 15° C | 99% | 1010.7 hPa | 6.1 mm | - | 44 W/m² | - |
| 1777679354 | 15° C | 99% | 1011.4 hPa | 4.83 mm | - | 19 W/m² | - |
| 1777679052 | 15° C | 99% | 1011.5 hPa | 1.78 mm | - | 18 W/m² | - |
| 1777678750 | 15.56° C | 99% | 1010.7 hPa | 0.51 mm | - | 20 W/m² | - |
| 1777678447 | 15° C | 99% | 1009.8 hPa | 0 mm | - | 41 W/m² | - |
| 1777678143 | 15° C | 99% | 1010.1 hPa | 0 mm | - | 12 W/m² | - |
| 1777677840 | 15.56° C | 99% | 1010 hPa | 0 mm | - | 9 W/m² | - |
| 1777677538 | 15.56° C | 99% | 1009.6 hPa | 10.16 mm | - | 18 W/m² | - |
| 1777677235 | 15.56° C | 99% | 1009 hPa | 10.16 mm | - | 25 W/m² | - |
| 1777676934 | 15.56° C | 99% | 1008.8 hPa | 14.99 mm | - | 58 W/m² | - |
| 1777676633 | 15.56° C | 99% | 1009.4 hPa | 15.49 mm | - | 91 W/m² | - |
| 1777676329 | 15.56° C | 99% | 1009.6 hPa | 1.78 mm | - | 97 W/m² | - |
| 1777676027 | 15.56° C | 99% | 1010.7 hPa | 2.29 mm | - | 34 W/m² | - |
| 1777675723 | 15.56° C | 99% | 1010.8 hPa | 1.27 mm | - | 8 W/m² | - |
| 1777675421 | 15.56° C | 99% | 1008.8 hPa | 0 mm | - | 26 W/m² | - |
| 1777675117 | 15.56° C | 99% | 1008.6 hPa | 0 mm | - | 30 W/m² | - |
| 1777674813 | 15.56° C | 99% | 1008.8 hPa | 0 mm | - | 18 W/m² | - |
| 1777674510 | 15.56° C | 99% | 1008.4 hPa | 0 mm | - | 31 W/m² | - |
| 1777674208 | 16.11° C | 99% | 1008.6 hPa | 0 mm | - | 44 W/m² | - |
| 1777673904 | 15.56° C | 99% | 1008.3 hPa | 0 mm | - | 66 W/m² | - |
| 1777673601 | 16.11° C | 99% | 1008.1 hPa | 0 mm | - | 164 W/m² | - |
* Rain latest hour (hover to see other rain measurements)
** Current wind speed in m/s (hover to see current wind gust speed)